Regional Weather Roundup
Issued by NWS

Home | Current Version | Previous Version | Text Only | Print | Product List | Glossary Off
Versions: 1 2 3 4 5 6 7 8 9 10 11 12 13 14 15 16 17 18 19 20 21 22 23 24 25 26 27 28 29 30 31 32 33 34 35 36 37 38 39 40 41 42 43 44 45 46 47 48 49 50

000
ASUS44 KMEG 240610
RWRTN
TENNESSEE HOURLY STATE WEATHER ROUNDUP
NATIONAL WEATHER SERVICE MEMPHIS TN
100 AM CDT WED AUG 24 2016

TNZ002-004-019-021-049-052-054-088>092-240700-
WEST TENNESSEE

CITY           SKY/WX    TMP DP  RH WIND       PRES   REMARKS
MEMPHIS INTL   CLEAR     81  73  76 S7        30.14S
NWS MEMPHIS      N/A     77 N/A N/A MISG        N/A
JACKSON        CLEAR     75  73  93 S3        30.16S
DYERSBURG      CLOUDY    79  73  83 MISG      30.14S
UNION CITY     CLEAR     73  73 100 SE6       30.13S
PARIS          CLEAR     72  72 100 SE6       30.17S
$$

TNZ008-025-027-028-033-062-065-066-240700-
NORTH MIDDLE TENNESSEE

CITY           SKY/WX    TMP DP  RH WIND       PRES   REMARKS
NASHVILLE      PTCLDY    72  69  90 S5        30.20S
CLARKSVILLE    CLEAR     73  71  93 S3        30.17F
COOKEVILLE     CLEAR     72  70  94 CALM      30.22F
CROSSVILLE     CLEAR     66  65  96 CALM      30.28F
$$

TNZ061-075-076-078-094-096-097-240700-
SOUTH MIDDLE TENNESSEE

CITY           SKY/WX    TMP DP  RH WIND       PRES   REMARKS
FAYETTEVILLE   PTCLDY    73  70  88 CALM      30.22S
TULLAHOMA      PTCLDY    70  70 100 CALM      30.24S
WINCHESTER     CLEAR     70  68  94 CALM      30.23S
MCMINNVILLE      N/A     70  70 100 CALM      30.23F
COLUMBIA       CLEAR    N/A N/A N/A CALM      30.18F
SHELBYVILLE    CLEAR     72  72 100 CALM      30.22F
$$

TNZ017-018-042-046-047-240700-
NORTHEAST TENNESSEE

CITY           SKY/WX    TMP DP  RH WIND       PRES   REMARKS
TRI CITIES     PTCLDY    64  62  93 CALM      30.28F
ELIZABETHTON   CLEAR     66  63  88 E5        30.29F
$$

TNZ012-013-036-069-073-074-240700-
CENTRAL EAST TENNESSEE

CITY           SKY/WX    TMP DP  RH WIND       PRES   REMARKS
KNOXVILLE      PTCLDY    72  66  81 CALM      30.22
OAK RIDGE      CLEAR     69  65  86 CALM      30.25F
GATLINBURG     CLEAR     68  66  94 CALM      30.23F
MORRISTOWN     CLOUDY    72  66  83 CALM      30.25S
$$

TNZ083-085-099-240700-
SOUTHEAST TENNESSEE

CITY           SKY/WX    TMP DP  RH WIND       PRES   REMARKS
CHATTANOOGA    CLEAR     74  68  81 CALM      30.23S
$$

SKY/WX REPORTED AS FAIR MEANS FEW OR NO CLOUDS BELOW
12 THOUSAND FEET.





USA.gov is the U.S. government's official web portal to all federal, state and local government web resources and services.